Regional Weather Roundup
Issued by NWS Grand Forks, ND

Home | Current Version | Previous Version | Text Only | Print | Product List | Glossary On
Versions: 1 2 3 4 5 6 7 8 9 10 11 12 13 14 15 16 17 18 19 20 21 22 23 24 25 26 27 28 29 30 31 32 33 34 35 36 37 38 39 40 41 42 43 44 45 46 47 48 49 50
000
ASUS43 KFGF 201131
RWRFGF
PRAIRIE TO PINES  WEATHER ROUNDUP
NATIONAL WEATHER SERVICE EASTERN NORTH DAKOTA/GRAND FORKS ND
600 AM CDT MON MAY 20 2019

 **SATELLITE DATA USED TO AUGMENT SKY COVER AT AUTOMATED STATIONS**
 *****  WEATHER ACROSS EASTERN NORTH DAKOTA  *****

CITY           SKY/WX    TMP DP  RH WIND       PRES   REMARKS
GRAND FORKS    FAIR      35  23  61 W7        30.11R
GRAND FRKS AFB PTCLDY    39  25  56 W7        30.16R
GRAND FRKS NWS   N/A     39  27  63 NW5       30.09R
DEVILS LAKE    FAIR      32  28  85 NE3       30.13R
FARGO          FAIR      33  33 100 S3        30.12R
WAHPETON ARPT  FAIR      37  34  87 W8        30.13R
$$

 ***** WEATHER ACROSS CENTRAL AND WESTERN NORTH DAKOTA  *****

CITY           SKY/WX    TMP DP  RH WIND       PRES   REMARKS
BISMARCK       MOCLDY    35  34  96 NE3       30.13R
MINOT          FAIR      32  26  78 CALM      30.13R
JAMESTOWN      FAIR      33  29  85 NW5       30.10R
MINOT AFB      FAIR      29  24  82 W6        30.12R WCI  23
GARRISON         N/A     38  29  70 NE6       30.11R
WILLISTON      FAIR      33  29  85 N6        30.11
DICKINSON      NOT AVBL
HETTINGER      FOG       28  27  96 CALM      30.10S VSB 1
$$

 *****  OTHER AIRPORT OBSERVATIONS IN OUR AREA  *****

CITY           SKY/WX    TMP DP  RH WIND       PRES   REMARKS
WALHALLA       FAIR      39  34  81 NW6       30.14R
GRAFTON AIRPOR FAIR      39  32  75 N6        30.15R
VALLEY CITY AR FAIR      30  30 100 NW5       30.13R
CANDO          FAIR      34  34 100 N8        30.15R
CAVALIER APRT  FAIR      41  32  70 NW7       30.13R
GWINNER          N/A     37  37 100 SW9       30.13S
SHEYENNE NWR     N/A     34  34 100 W6        29.95S
ROLLA          FAIR      36  30  80 NW9       30.15R
 ***** THE ABOVE OBSERVATIONS ARE NON NWS ARE NOT QUALITY
       CONTROLLED AND MAY MIS-REPORT RAIN FOR SNOW...
$$

  *****  WEATHER ACROSS NORTHERN MINNESOTA  *****

CITY           SKY/WX    TMP DP  RH WIND       PRES   REMARKS
FLAG ISLAND    FAIR      45  37  76 N6        30.12R
WARROAD        FAIR      37  34  87 CALM      30.12R
ROSEAU         FAIR      37  30  75 N5        30.12R
HALLOCK        FAIR      39  27  60 NW5       30.12R
THF RVR FALLS  FAIR      40  27  59 NW6       30.11R
BAUDETTE       FAIR      31  29  92 NW3       30.11R
WASKISH        FAIR      39  32  75 NE7       30.10R
CROOKSTON      FAIR      37  28  70 N3        30.11R
STEPHEN NDAWN    N/A     37  19  48 N3          N/A
GREENBUSH NDAW   N/A     37  32  81 CALM        N/A
$$
  *****  WEATHER ACROSS CENTRAL AND WEST MINNESOTA  *****

CITY           SKY/WX    TMP DP  RH WIND       PRES   REMARKS
FOSSTON        FAIR      34  28  80 CALM      30.13R
BEMIDJI        FAIR      39  32  75 CALM      30.10R
PARK RAPIDS    FAIR      35  32  88 CALM      30.09R
ELBOW LAKE     FAIR      38  38 100 N6        30.13S
WADENA         FAIR      36  36 100 W3        30.10R
DETROIT LAKES  FAIR      37  36  93 CALM      30.13R FOG
MOORHEAD       FAIR      36  34  93 CALM      30.14R
FERGUS FALLS   FAIR      36  36 100 NW6       30.12R
MORRIS MN      FAIR      36  36 100 NW3       30.09R
STAPLES        FAIR      36  36 100 W5        30.11R
$$
  *****  WEATHER ELSEWHERE ACROSS MINNESOTA  *****

CITY           SKY/WX    TMP DP  RH WIND       PRES   REMARKS
DULUTH         FAIR      37  33  85 NW7       30.06R
INTRNTL FALLS  FAIR      33  31  92 N3        30.10R
ELY            FAIR      28  28 100 CALM      30.07R
CLOQUET        FAIR      36  34  93 N7        30.07R
WHEATON        FAIR      39  36  87 W7        30.15R
BRAINERD       CLOUDY    33  30  88 CALM      30.11R FOG
HIBBING        FAIR      28  27  96 NW3       30.07R
ALEXANDRIA     FAIR      41  36  82 NW9       30.12R
SAINT CLOUD    FAIR      36  35  96 NW6       30.10R
MINNEAPOLIS    FAIR      36  34  92 SW3       30.10R
$$

  *****  WEATHER ACROSS SOUTH DAKOTA  *****

CITY           SKY/WX    TMP DP  RH WIND       PRES   REMARKS
SIOUX FALLS    FAIR      34  32  92 CALM      30.15R
BROOKINGS      FAIR      35  35 100 CALM      30.15R
WATERTOWN      FAIR      37  34  89 NW6       30.12R
HURON          FAIR      35  34  96 CALM      30.16R
SISSETON         N/A     41  36  82 W14       30.11R
ABERDEEN       FAIR      35  33  92 W5        30.14S
MITCHELL       FAIR      41  38  89 SW7       30.16R
PIERRE         CLOUDY    38  36  92 CALM      30.14R
MOBRIDGE       FAIR      39  35  86 SE5       30.10R
RAPID CITY     LGT RAIN  35  33  92 S7        30.08S
$$

  *****  SOME WEATHER IN NEARBY STATES *****

CITY           SKY/WX    TMP DP  RH WIND       PRES   REMARKS
GLASGOW MT     FAIR      36  29  75 E8        30.05S
GREAT FALLS MT CLOUDY    39  31  72 E13       29.89F
CHEYENNE WY    CLOUDY    32  30  92 SE10      29.92F WCI  24
SCOTTSBLUFF NE CLOUDY    38  37  97 E13       29.99F
OMAHA NE       MOCLDY    45  38  76 N9        30.12R
DES MOINES IA  CLOUDY    42  34  73 N10       30.09S
DAVENPORT IA   CLOUDY    42  36  79 NW16      30.03R
CHICAGO IL     MOCLDY    48  41  76 NW17G28   29.92R
EAU CLAIRE WI  FAIR      35  32  88 CALM      30.05R
LA CROSSE WI   FAIR      42  35  76 N9        30.06R
$$

  *****  SOME NATIONAL WEATHER *****

CITY           SKY/WX    TMP DP  RH WIND       PRES   REMARKS
LA GUARDIA NY  PTSUNNY   66  60  81 S8        29.83R
RALEIGH NC     CLOUDY    69  67  93 SW15      30.02S
ATLANTA GA     MOCLDY    71  63  75 S3        30.04R
NEW ORLEANS LA CLOUDY    76  72  87 SE6       29.98R
OKLAHOMA CITY  MOCLDY    62  56  80 E14       29.88F
ALBUQUERQUE NM CLOUDY    56  26  31 SE7       29.77F
SALT LAKE CITY FAIR      46  37  71 CALM      29.65R
LOS ANGELES CA MOCLDY    56  49  77 N6        29.86R
BOISE ID       LGT RAIN  49  48  97 NW6       29.61S
SEATTLE WA     CLOUDY    55  48  77 S9        29.78S
$$

*** WEATHER ACROSS MANITOBA...SASKATCHEWAN AND ONTARIO ***
                ***ONTARIO***

CITY           SKY/WX    TMP DP  RH WIND       PRES   REMARKS
GERALDTON      CLOUDY    41  34  75 NW7       29.97R
THUNDER BAY    MOCLDY    39  32  75 S6        30.02R
SIOUX LOOKOUT  PTCLDY    32  32 100 N2        30.09R
TORONTO        PTSUNNY   61  57  88 S15       29.69R
BIG TROUT LK   CLOUDY    32 N/A N/A N6        30.16R
PICKLE LAKE    MOCLDY    39  34  81 NW3       30.08
DRYDEN         CLEAR     39  36  87 N2        30.10R
KENORA         PTCLDY    39  34  81 N7        30.12R
$$
                *** MANITOBA***

CITY           SKY/WX    TMP DP  RH WIND       PRES   REMARKS
BRANDON        MOCLDY    39  30  70 NE8       30.14S
DAUPHIN        CLOUDY    43  36  75 NW3       30.19R
ISLAND LAKE    PTCLDY    36  34  93 N5        30.20R
PILOT MOUND      N/A     36  32  87 N5          N/A
THE PAS        CLEAR     34  30  86 CALM      30.21S
THOMPSON       MOCLDY    30  28  93 NE2       30.26R
WINNIPEG       PTCLDY    37  32  81 NE6       30.13R
LYNN LAKE      CLEAR     30  27  86 NE2       30.22R
CHURCHILL      MOCLDY    25  25 100 S2        30.31S
GILLAM         FOG       27  27 100 NE5       30.27S VSB 1/4 WCI  21
$$
                ***SASKATCHEWAN***

CITY           SKY/WX    TMP DP  RH WIND       PRES   REMARKS
ESTEVAN        PTCLDY    36  30  80 E8        30.14R
KINDERSLEY     PTCLDY    34  21  60 S16       30.08S WCI  23
LLOYDMINSTER   CLEAR     37  28  70 SE6       30.09F
PRINCE ALBERT  PTCLDY    34  30  86 E3        30.20R
REGINA         PTCLDY    41  30  65 SE13      30.14S
YORKTON        PTCLDY    30  27  86 NW5       30.19S
N. BATTLEFORD  CLEAR     36  28  75 E8        30.15R
LA RONGE       PTCLDY    32  28  86 VRB2      30.20R
SASKATOON      CLEAR     41  30  65 SE12      30.16R
SWIFT CURRENT  CLEAR     32  21  64 SE6       30.07S
$$
NOTE: THESE ARE AUTOMATED STATIONS WITH LIMITED QUALITY CONTROL
      "FAIR" INDICATES FEW OR NO CLOUDS BELOW 12,000 FEET WITH NO
      SIGNIFICANT WEATHER AND/OR OBSTRUCTIONS TO VISIBILITY.
      SKY/WX - SKY CONDITION AND SIGNIFICANT WEATHER.
      TMP - AIR TEMPERATURE.    DP   - DEWPOINT TEMPERATURE.
      RH  - RELATIVE HUMIDITY.  PRES - PRESSURE.
      HX  - HEAT INDEX.         WCI  - WIND CHILL INDEX.
$



USA.gov is the U.S. government's official web portal to all federal, state and local government web resources and services.